DTR12E LICG-LICJ

Flight info

Callsign DTR12E
Flight time N/A
Altitude 14000
Route ROBET M740 MEGAN L869 PAL
Aircraft AT75/M-SDFGIRY/S

Departure

Time 2026-04-26 16:08
Airport Pantelleria Airport (LICG)

Arrival

Time N/A
Airport Falcone–Borsellino Airport (LICJ)
Time Latitude Longitude Altitude Speed Heading
2026-04-26 15:26 36.81881 11.96822 581 ft 0 kts 353°
2026-04-26 15:41 36.81886 11.96821 580 ft 1 kts 353°
2026-04-26 15:41 36.81891 11.96821 580 ft 0 kts 357°
2026-04-26 15:41 36.81894 11.96823 580 ft 1 kts 30°
2026-04-26 15:42 36.81895 11.96834 580 ft 2 kts 104°
2026-04-26 15:42 36.81872 11.96855 582 ft 5 kts 158°
2026-04-26 15:42 36.81803 11.96853 586 ft 14 kts 208°
2026-04-26 15:42 36.81739 11.96803 589 ft 11 kts 224°
2026-04-26 15:43 36.81752 11.96748 587 ft 7 kts 312°
2026-04-26 15:43 36.81755 11.96743 587 ft 0 kts 303°
2026-04-26 15:56 36.81757 11.96741 586 ft 1 kts 317°
2026-04-26 15:57 36.81768 11.96755 586 ft 3 kts 98°
2026-04-26 15:57 36.81759 11.96785 587 ft 8 kts 104°
2026-04-26 15:57 36.81775 11.96871 588 ft 7 kts 116°
2026-04-26 15:57 36.81761 11.96905 589 ft 6 kts 117°
2026-04-26 15:58 36.81739 11.96956 592 ft 0 kts 118°
2026-04-26 15:58 36.81738 11.96958 592 ft 0 kts 117°
2026-04-26 16:03 36.81737 11.96959 592 ft 0 kts 118°
2026-04-26 16:03 36.81736 11.96963 592 ft 0 kts 118°
2026-04-26 16:05 36.81728 11.96982 593 ft 14 kts 118°
2026-04-26 16:05 36.81692 11.97087 597 ft 18 kts 96°
2026-04-26 16:05 36.81709 11.97211 597 ft 14 kts 78°
2026-04-26 16:06 36.81724 11.97325 596 ft 12 kts 102°
2026-04-26 16:06 36.81735 11.97352 595 ft 5 kts 283°
2026-04-26 16:06 36.81733 11.97334 595 ft 0 kts 256°
2026-04-26 16:07 36.81728 11.97308 596 ft 24 kts 256°
2026-04-26 16:07 36.81611 11.96697 595 ft 112 kts 255°
2026-04-26 16:08 36.81425 11.95687 1111 ft 118 kts 260°
2026-04-26 16:08 36.81307 11.95094 1477 ft 119 kts 259°
2026-04-26 16:08 36.81079 11.93798 1985 ft 140 kts 261°
2026-04-26 16:08 36.80906 11.92676 2230 ft 167 kts 263°
2026-04-26 16:09 36.80783 11.91257 2834 ft 170 kts 280°
2026-04-26 16:09 36.81338 11.90074 3321 ft 169 kts 335°
2026-04-26 16:09 36.82261 11.90301 3809 ft 171 kts 49°
2026-04-26 16:09 36.82596 11.91509 4028 ft 159 kts 74°
2026-04-26 16:10 36.82806 11.92762 3932 ft 180 kts 75°
2026-04-26 16:10 36.83028 11.94083 4293 ft 173 kts 74°
2026-04-26 16:10 36.83269 11.95297 4436 ft 143 kts 70°
2026-04-26 16:10 36.83546 11.96347 4355 ft 130 kts 63°
2026-04-26 16:11 36.83889 11.97356 3917 ft 160 kts 59°
2026-04-26 16:11 36.84365 11.98699 3720 ft 170 kts 62°
2026-04-26 16:11 36.84567 11.99990 3636 ft 151 kts 101°
2026-04-26 16:11 36.83652 12.00384 2893 ft 179 kts 187°
2026-04-26 16:12 36.82604 11.99775 1971 ft 192 kts 206°
2026-04-26 16:12 36.81914 11.98502 1166 ft 185 kts 251°
2026-04-26 16:12 36.81508 11.96090 608 ft 61 kts 261°
2026-04-26 16:13 36.81457 11.95984 611 ft 21 kts 55°
2026-04-26 16:13 36.81530 11.96281 601 ft 47 kts 78°
2026-04-26 16:13 36.81608 11.96690 594 ft 46 kts 77°
2026-04-26 16:13 36.81684 11.96913 594 ft 21 kts 26°
2026-04-26 16:14 36.81772 11.96878 588 ft 14 kts 297°
2026-04-26 16:14 36.81847 11.96876 584 ft 12 kts 27°
2026-04-26 16:14 36.81900 11.96863 580 ft 0 kts 297°
2026-04-26 16:15 36.81918 11.96862 579 ft 6 kts 51°
2026-04-26 16:15 36.81920 11.96868 579 ft 0 kts 69°